Lamar, CO

3:41 PM MDT on July 21, 2017 (GMT -0600)
Lamar Municipal

Weather History for KLAA - March, 2014

Change the Weather History Date:

Monday, March 17, 2014

  Actual Average Record
Temperature  
Mean Temperature 55 °F 43 °F  
Max Temperature 78 °F 59 °F 88 °F (2012)
Min Temperature 31 °F 27 °F -4 °F (1924)
Degree Days  
Heating Degree Days 10 22  
Month to date heating degree days 423 422  
Since 1 July heating degree days 4704 4733  
Cooling Degree Days 0 0  
Month to date cooling degree days 0 0  
Year to date cooling degree days 0 0  
Growing Degree Days 4 (Base 50)    
Moisture  
Dew Point 15 °F    
Average Humidity 39    
Maximum Humidity 72    
Minimum Humidity 6    
Precipitation  
Precipitation 0.00 in 0.03 in 0.30 in (1987)
Month to date precipitation 0.24  
Year to date precipitation 0.51  
Sea Level Pressure  
Sea Level Pressure 29.48 in    
Wind  
Wind Speed 13 mph (WSW)    
Max Wind Speed 33 mph    
Max Gust Speed 40 mph    
Visibility 9 miles    
Events      
T = Trace of Precipitation, MM = Missing Value Source: NWS Daily Summary

Daily Weather History Graph

Daily Weather History Graph

Search for Another Location

Airport or City:

Trip Planner

Search our weather history database for the weather conditions in past years. The results will help you decide how hot, cold, wet, or windy it might be!

Date:

Astronomy

Mar. 17, 2014 Rise Set
Actual Time 6:58 AM MDT 6:59 PM MDT
Civil Twilight 6:32 AM MDT 7:26 PM MDT
Nautical Twilight 6:01 AM MDT 7:56 PM MDT
Astronomical Twilight 5:30 AM MDT 8:27 PM MDT
Moon 8:17 PM MDT (3/17) 7:16 AM MDT (3/17)
Length of Visible Light 12h 53m
Length of Day
12h 01m
Full, 99% of the Moon is Illuminated
Mar 17
Full
Mar 23
Last Quarter
Mar 30
New
Apr 7
First Quarter
Apr 15
Full

Hourly Weather History & Observations

Time (MDT) Temp. Windchill Dew Point Humidity Pressure Visibility Wind Dir Wind Speed Gust Speed Precip Events Conditions
12:53 AM 36.0 °F 31.1 °F 24.1 °F 62% 29.94 in 10.0 mi WSW 5.8 mph - N/A   Clear
1:53 AM 37.0 °F 31.0 °F 24.1 °F 59% 29.90 in 10.0 mi West 8.1 mph - N/A   Clear
2:53 AM 37.0 °F 30.4 °F 25.0 °F 62% 29.86 in 10.0 mi WSW 9.2 mph - N/A   Clear
3:53 AM 37.0 °F 29.8 °F 24.1 °F 59% 29.81 in 10.0 mi WSW 10.4 mph - N/A   Clear
4:53 AM 37.0 °F 30.4 °F 23.0 °F 57% 29.80 in 10.0 mi West 9.2 mph - N/A   Clear
5:53 AM 34.0 °F 27.2 °F 23.0 °F 64% 29.78 in 10.0 mi SW 8.1 mph - N/A   Clear
6:53 AM 32.0 °F 25.6 °F 23.0 °F 69% 29.77 in 10.0 mi WSW 6.9 mph - N/A   Clear
7:53 AM 32.0 °F 26.4 °F 24.1 °F 73% 29.75 in 10.0 mi SW 5.8 mph - N/A   Clear
8:53 AM 46.9 °F - 24.1 °F 41% 29.70 in 10.0 mi WSW 9.2 mph - N/A   Clear
9:53 AM 52.0 °F - 24.1 °F 34% 29.65 in 10.0 mi West 6.9 mph - N/A   Clear
10:53 AM 55.0 °F - 26.1 °F 33% 29.60 in 10.0 mi Calm Calm - N/A   Clear
11:53 AM 66.0 °F - 15.1 °F 14% 29.51 in 10.0 mi SSW 11.5 mph - N/A   Clear
12:53 PM 70.0 °F - 9.0 °F 9% 29.44 in 10.0 mi SW 9.2 mph 16.1 mph N/A   Clear
1:53 PM 75.0 °F - 6.1 °F 7% 29.36 in 10.0 mi SSW 15.0 mph - N/A   Clear
2:53 PM 73.9 °F - 3.0 °F 6% 29.30 in 10.0 mi South 15.0 mph 26.5 mph N/A   Clear
3:53 PM 75.0 °F - 3.9 °F 6% 29.25 in 10.0 mi South 13.8 mph - N/A   Clear
4:53 PM 73.9 °F - 3.0 °F 6% 29.20 in 10.0 mi WSW 13.8 mph - N/A   Clear
5:53 PM 75.9 °F - 5.0 °F 6% 29.16 in 6.0 mi WSW 28.8 mph 33.4 mph N/A   Haze
6:14 PM 73.0 °F - 6.1 °F 7% 29.24 in 4.0 mi WSW 27.6 mph 35.7 mph N/A   Haze
6:29 PM 72.0 °F - 5.0 °F 7% 29.26 in 5.0 mi West 26.5 mph 38.0 mph N/A   Haze
6:53 PM 71.1 °F - 5.0 °F 8% 29.19 in 7.0 mi West 24.2 mph 34.5 mph N/A   Scattered Clouds
7:53 PM 66.9 °F - 3.9 °F 8% 29.20 in 7.0 mi West 23.0 mph 31.1 mph N/A   Clear
8:53 PM 62.1 °F - 7.0 °F 11% 29.20 in 8.0 mi West 15.0 mph - N/A   Clear
9:53 PM 55.0 °F - 12.0 °F 18% 29.21 in 10.0 mi WNW 10.4 mph - N/A   Clear
10:53 PM 55.0 °F - 25.0 °F 31% 29.26 in 10.0 mi North 15.0 mph 26.5 mph N/A   Clear
11:53 PM 50.0 °F - 27.0 °F 41% 29.26 in 10.0 mi North 13.8 mph - N/A   Clear